Hourly Data Report for October 17, 2017

All times are specified in Local Standard Time (LST). Add 1 hour to adjust for Daylight Saving Time where and when it is observed.

LUNENBURG
NOVA SCOTIA

44°21'36.094" N
64°17'46.082" W
3.80 m
8203210
XLB

Related Data

No related data is available for this station

Download Data

Hourly Data (October 2017)
Hourly Data Report for October 17, 2017
Temp Definition
°C
Dew Point Temp Definition
°C
Rel Hum Definition
%
Wind Dir Definition
10's deg

Wind Spd Definition
km/h
Visibility Definition
km
Stn Press Definition
kPa
Hmdx Definition


Wind Chill Definition


Weather Definition


TIME
00:00 10.4 5.1 70 33 11   101.31     LegendNANA
01:00 10.4 5.4 71 33 12   101.33     LegendNANA
02:00 10.3 6.3 76 32 21   101.32     LegendNANA
03:00 9.6 6.0 78 31 25   101.34     LegendNANA
04:00 9.1 5.4 78 32 23   101.45     LegendNANA
05:00 8.8 5.0 77 31 26   101.52     LegendNANA
06:00 8.4 4.8 78 31 18   101.55     LegendNANA
07:00 8.2 4.8 79 30 24   101.62     LegendNANA
08:00 8.3 5.1 81 30 28   101.69     LegendNANA
09:00 8.1 4.1 76 29 33   101.73     LegendNANA
10:00 7.7 5.0 83 31 34   101.80     LegendNANA
11:00 8.7 1.8 62 31 26   101.81     LegendNANA
12:00 8.6 0.2 55 31 31   101.83     LegendNANA
13:00 9.4 -0.6 49 30 31   101.81     LegendNANA
14:00 9.9 -2.5 42 31 30   101.83     LegendNANA
15:00 10.3 -2.0 42 30 23   101.86     LegendNANA
16:00 10.1 -1.8 44 31 22   101.89     LegendNANA
17:00 9.8 -1.1 46 29 19   101.91     LegendNANA
18:00 8.7 -1.1 50 29 13   102.01     LegendNANA
19:00 8.2 0.4 58 28 16   102.08     LegendNANA
20:00 6.8 1.4 69 25 12   102.10     LegendNANA
21:00 6.2 2.2 76 25 12   102.14     LegendNANA
22:00 5.6 1.6 75 25 10   102.12     LegendNANA
23:00 5.4 2.3 81 26 14   102.14     LegendNANA

Notes on Data Quality.

Legend

  • E = Estimated
  • M = Missing
  • NA = Not Available
  • ‡ = Partner data that is not subject to review by the National Climate Archives
Date modified: